�������l�o���
Date,Time,MP-1(��Sv/h),MP-2(��Sv/h),MP-3(��Sv/h),MP-4(��Sv/h),MP-5(��Sv/h),MP-6(��Sv/h),MP-7(��Sv/h),MP-8(��Sv/h),����,����(m/s),���J
2023/07/07,00:00,0.534,0.817,0.495,0.979,0.719,0.327,0.570,0.535,�k��,3.1,��
2023/07/07,00:10,0.536,0.818,0.496,0.983,0.718,0.328,0.570,0.535,�k�k��,4.1,��
2023/07/07,00:20,0.535,0.819,0.494,0.980,0.718,0.328,0.570,0.538,�k�k��,5.1,��
2023/07/07,00:30,0.535,0.817,0.495,0.979,0.720,0.326,0.571,0.536,�k��,4.9,��
2023/07/07,00:40,0.535,0.818,0.495,0.980,0.720,0.327,0.572,0.535,�k��,4.9,��
2023/07/07,00:50,0.537,0.818,0.496,0.979,0.721,0.328,0.571,0.537,�k�k��,3.3,��
2023/07/07,01:00,0.536,0.818,0.496,0.981,0.719,0.328,0.571,0.535,�k�k��,3.9,��
2023/07/07,01:10,0.536,0.818,0.494,0.981,0.719,0.329,0.571,0.536,�k��,5.5,��
2023/07/07,01:20,0.536,0.818,0.495,0.980,0.718,0.327,0.571,0.536,�k�k��,5.3,��
2023/07/07,01:30,0.536,0.818,0.495,0.981,0.718,0.328,0.572,0.536,�k��,5.9,��
2023/07/07,01:40,0.536,0.818,0.498,0.982,0.718,0.327,0.572,0.536,�k�k��,5.6,��
2023/07/07,01:50,0.536,0.818,0.495,0.980,0.720,0.328,0.572,0.537,�k��,5.3,��
2023/07/07,02:00,0.536,0.817,0.496,0.981,0.717,0.329,0.571,0.536,�k��,5.0,��
2023/07/07,02:10,0.534,0.817,0.497,0.980,0.719,0.329,0.572,0.536,�k�k��,1.7,��
2023/07/07,02:20,0.533,0.818,0.498,0.979,0.719,0.327,0.571,0.536,�k�k��,3.1,��
2023/07/07,02:30,0.534,0.817,0.496,0.980,0.720,0.327,0.571,0.537,�k��,2.5,��
2023/07/07,02:40,0.535,0.818,0.496,0.981,0.719,0.329,0.574,0.536,�k��,2.5,��
2023/07/07,02:50,0.534,0.818,0.495,0.980,0.719,0.327,0.574,0.536,�k�k��,0.9,��
2023/07/07,03:00,0.534,0.817,0.497,0.981,0.720,0.327,0.572,0.536,�k��,0.9,��
2023/07/07,03:10,0.535,0.818,0.497,0.980,0.719,0.328,0.573,0.535,�k��,1.5,��
2023/07/07,03:20,0.535,0.816,0.495,0.980,0.720,0.328,0.573,0.536,�쓌,0.9,��
2023/07/07,03:30,0.535,0.819,0.495,0.980,0.718,0.328,0.573,0.536,�k�k��,0.8,��
2023/07/07,03:40,0.536,0.818,0.496,0.982,0.718,0.326,0.573,0.536,�쐼,0.6,��
2023/07/07,03:50,0.535,0.818,0.495,0.981,0.720,0.328,0.573,0.536,��쓌,1.2,��
2023/07/07,04:00,0.536,0.818,0.494,0.981,0.718,0.328,0.572,0.537,��,1.2,��
2023/07/07,04:10,0.536,0.818,0.495,0.979,0.718,0.327,0.573,0.537,��,1.2,��
2023/07/07,04:20,0.534,0.819,0.494,0.981,0.720,0.327,0.572,0.536,��쐼,1.2,��
2023/07/07,04:30,0.533,0.817,0.496,0.983,0.719,0.329,0.573,0.535,��,1.2,��
2023/07/07,04:40,0.534,0.819,0.494,0.980,0.720,0.327,0.573,0.536,��쓌,0.8,��
2023/07/07,04:50,0.534,0.818,0.496,0.978,0.717,0.329,0.572,0.538,��쓌,1.5,��
2023/07/07,05:00,0.536,0.818,0.495,0.979,0.719,0.328,0.573,0.537,�쓌,1.5,��
2023/07/07,05:10,0.535,0.818,0.494,0.978,0.718,0.328,0.574,0.535,��,1.2,��
2023/07/07,05:20,0.535,0.817,0.495,0.981,0.719,0.326,0.573,0.536,�쓌,1.5,��
2023/07/07,05:30,0.533,0.816,0.495,0.980,0.718,0.328,0.573,0.537,�쓌,0.6,��
2023/07/07,05:40,0.535,0.819,0.496,0.981,0.716,0.329,0.574,0.537,�쓌,0.9,��
2023/07/07,05:50,0.535,0.819,0.495,0.980,0.719,0.328,0.573,0.537,�쓌,1.5,��
2023/07/07,06:00,0.535,0.818,0.495,0.979,0.718,0.327,0.574,0.535,�쓌,0.9,��
2023/07/07,06:10,0.536,0.819,0.493,0.981,0.719,0.329,0.574,0.535,-,CALM,��
2023/07/07,06:20,0.534,0.817,0.493,0.981,0.719,0.327,0.574,0.536,��,0.6,��
2023/07/07,06:30,0.534,0.816,0.494,0.979,0.716,0.326,0.574,0.537,-,CALM,��
2023/07/07,06:40,0.534,0.817,0.494,0.978,0.717,0.327,0.575,0.537,�k�k��,0.8,��
2023/07/07,06:50,0.534,0.817,0.497,0.978,0.719,0.326,0.573,0.537,���k��,0.9,��
2023/07/07,07:00,0.533,0.816,0.496,0.980,0.717,0.328,0.575,0.538,��,1.5,��
2023/07/07,07:10,0.534,0.816,0.494,0.981,0.717,0.326,0.577,0.536,��,1.5,��
2023/07/07,07:20,0.532,0.817,0.495,0.979,0.718,0.326,0.573,0.537,��,0.6,��
2023/07/07,07:30,0.534,0.819,0.496,0.978,0.717,0.327,0.574,0.537,�쓌,1.2,��
2023/07/07,07:40,0.535,0.817,0.494,0.980,0.718,0.328,0.575,0.536,�쓌,2.0,��
2023/07/07,07:50,0.533,0.816,0.493,0.979,0.717,0.327,0.574,0.536,��쓌,1.7,��
2023/07/07,08:00,0.535,0.816,0.495,0.981,0.717,0.327,0.574,0.536,��쓌,1.7,��
2023/07/07,08:10,0.535,0.815,0.495,0.980,0.716,0.327,0.574,0.534,��쓌,2.0,��
2023/07/07,08:20,0.534,0.818,0.494,0.980,0.719,0.326,0.573,0.534,��쓌,2.3,��
2023/07/07,08:30,0.536,0.818,0.495,0.981,0.720,0.327,0.574,0.535,��쓌,2.0,��
2023/07/07,08:40,0.535,0.817,0.494,0.979,0.719,0.329,0.574,0.535,�쓌,2.3,��
2023/07/07,08:50,0.537,0.819,0.495,0.983,0.718,0.327,0.574,0.535,�쓌,2.3,��
2023/07/07,09:00,0.536,0.816,0.493,0.981,0.719,0.326,0.574,0.534,��쓌,2.5,��
2023/07/07,09:10,0.535,0.817,0.495,0.981,0.720,0.326,0.575,0.536,�쓌,2.3,��
2023/07/07,09:20,0.536,0.818,0.496,0.980,0.720,0.327,0.576,0.536,��쓌,1.7,��
2023/07/07,09:30,0.535,0.819,0.496,0.981,0.721,0.328,0.575,0.535,��,1.7,��
2023/07/07,09:40,0.537,0.820,0.496,0.981,0.720,0.327,0.576,0.536,��쓌,2.5,��
2023/07/07,09:50,0.537,0.820,0.497,0.982,0.722,0.327,0.576,0.537,��쓌,2.9,��
2023/07/07,10:00,0.537,0.820,0.498,0.981,0.721,0.328,0.574,0.536,��쓌,3.0,��
2023/07/07,10:10,0.538,0.819,0.496,0.981,0.723,0.327,0.576,0.534,��쓌,2.8,��
2023/07/07,10:20,0.537,0.820,0.498,0.984,0.723,0.326,0.577,0.537,�쓌,2.8,��
2023/07/07,10:30,0.535,0.823,0.498,0.983,0.722,0.326,0.573,0.535,�쓌,2.9,��
2023/07/07,10:40,0.537,0.821,0.498,0.985,0.725,0.328,0.576,0.536,��쓌,3.5,��
2023/07/07,10:50,0.538,0.822,0.499,0.981,0.727,0.327,0.574,0.537,�쓌,3.4,��
2023/07/07,11:00,0.536,0.820,0.497,0.983,0.725,0.329,0.574,0.535,��쓌,3.6,��
2023/07/07,11:10,0.539,0.821,0.499,0.982,0.722,0.327,0.573,0.538,��쓌,4.2,��
2023/07/07,11:20,0.537,0.822,0.498,0.981,0.724,0.329,0.575,0.536,��쓌,6.0,��
2023/07/07,11:30,0.537,0.819,0.499,0.982,0.725,0.326,0.573,0.536,��쓌,6.9,��
2023/07/07,11:40,0.539,0.822,0.499,0.981,0.728,0.326,0.574,0.538,��쓌,7.2,��
2023/07/07,11:50,0.540,0.820,0.500,0.981,0.725,0.329,0.573,0.537,��쓌,7.8,��
2023/07/07,12:00,0.538,0.822,0.501,0.983,0.725,0.329,0.576,0.538,��쓌,6.0,��
2023/07/07,12:10,0.538,0.823,0.500,0.981,0.724,0.329,0.574,0.536,��쓌,5.7,��
2023/07/07,12:20,0.537,0.822,0.501,0.983,0.723,0.328,0.574,0.537,��쓌,4.8,��
2023/07/07,12:30,0.538,0.823,0.499,0.982,0.727,0.327,0.573,0.537,��쓌,5.2,��
2023/07/07,12:40,0.538,0.824,0.499,0.982,0.726,0.328,0.573,0.538,��쓌,4.2,��
2023/07/07,12:50,0.539,0.822,0.499,0.983,0.726,0.328,0.573,0.537,��쓌,4.3,��
2023/07/07,13:00,0.537,0.822,0.499,0.984,0.724,0.328,0.571,0.538,��쓌,4.0,��
2023/07/07,13:10,0.537,0.823,0.499,0.985,0.725,0.328,0.574,0.537,��쓌,3.7,��
2023/07/07,13:20,0.538,0.823,0.498,0.983,0.726,0.328,0.572,0.538,��쓌,6.1,��
2023/07/07,13:30,0.540,0.823,0.497,0.984,0.727,0.327,0.574,0.538,��쓌,5.2,��
2023/07/07,13:40,0.540,0.823,0.500,0.985,0.726,0.329,0.573,0.538,��쓌,5.7,��
2023/07/07,13:50,0.539,0.824,0.500,0.984,0.726,0.328,0.574,0.538,��,6.8,��
2023/07/07,14:00,0.541,0.824,0.497,0.984,0.729,0.329,0.572,0.539,��,8.6,��
2023/07/07,14:10,0.540,0.821,0.501,0.983,0.730,0.329,0.573,0.540,��,7.8,��
2023/07/07,14:20,0.540,0.824,0.500,0.984,0.728,0.329,0.572,0.539,��,7.7,��
2023/07/07,14:30,0.542,0.825,0.500,0.984,0.727,0.329,0.575,0.539,��,8.4,��
2023/07/07,14:40,0.539,0.824,0.501,0.985,0.727,0.331,0.573,0.539,��,7.1,��
2023/07/07,14:50,0.539,0.823,0.499,0.986,0.726,0.330,0.575,0.540,��,8.3,��
2023/07/07,15:00,0.541,0.824,0.498,0.985,0.731,0.329,0.575,0.538,��,8.7,��
2023/07/07,15:10,0.543,0.825,0.501,0.990,0.727,0.330,0.576,0.537,��쓌,10.2,��
2023/07/07,15:20,0.540,0.824,0.502,0.986,0.729,0.330,0.575,0.536,��,9.2,��
2023/07/07,15:30,0.543,0.827,0.501,0.988,0.729,0.329,0.576,0.538,��,10.0,��
2023/07/07,15:40,0.540,0.825,0.498,0.990,0.727,0.328,0.575,0.538,��,10.5,��
2023/07/07,15:50,0.541,0.823,0.499,0.989,0.728,0.329,0.574,0.538,��,8.8,��
2023/07/07,16:00,0.541,0.822,0.500,0.987,0.727,0.328,0.574,0.537,��,8.9,��
2023/07/07,16:10,0.541,0.824,0.498,0.988,0.728,0.328,0.574,0.537,��,7.6,��
2023/07/07,16:20,0.540,0.824,0.498,0.986,0.726,0.327,0.573,0.537,��,9.4,��
2023/07/07,16:30,0.541,0.823,0.498,0.987,0.726,0.328,0.575,0.535,��,8.7,��
2023/07/07,16:40,0.541,0.824,0.497,0.985,0.726,0.326,0.574,0.537,��,7.8,��
2023/07/07,16:50,0.540,0.823,0.497,0.987,0.726,0.327,0.574,0.537,��,8.3,��
2023/07/07,17:00,0.541,0.824,0.496,0.986,0.727,0.328,0.574,0.538,��,7.3,��
2023/07/07,17:10,0.541,0.822,0.498,0.985,0.729,0.328,0.574,0.537,��,9.2,��
2023/07/07,17:20,0.539,0.825,0.497,0.988,0.728,0.328,0.573,0.536,��,8.1,��
2023/07/07,17:30,0.539,0.824,0.499,0.988,0.728,0.328,0.573,0.537,��,8.3,��
2023/07/07,17:40,0.539,0.824,0.499,0.986,0.726,0.328,0.574,0.536,��,8.8,��
2023/07/07,17:50,0.539,0.824,0.499,0.987,0.727,0.328,0.573,0.537,��,8.3,��
2023/07/07,18:00,0.539,0.823,0.499,0.986,0.726,0.327,0.573,0.536,��,7.7,��
2023/07/07,18:10,0.539,0.824,0.497,0.988,0.728,0.328,0.572,0.536,��,7.1,��
2023/07/07,18:20,0.540,0.822,0.499,0.985,0.727,0.328,0.573,0.537,��,6.9,��
2023/07/07,18:30,0.542,0.820,0.497,0.988,0.727,0.329,0.572,0.537,��,6.1,��
2023/07/07,18:40,0.541,0.823,0.498,0.988,0.726,0.328,0.573,0.537,��,6.3,��
2023/07/07,18:50,0.539,0.821,0.497,0.987,0.727,0.328,0.573,0.536,��,6.6,��
2023/07/07,19:00,0.540,0.820,0.498,0.989,0.728,0.329,0.573,0.536,��,6.3,��
2023/07/07,19:10,0.540,0.821,0.500,0.989,0.727,0.328,0.572,0.538,��,5.6,��
2023/07/07,19:20,0.541,0.821,0.500,0.989,0.727,0.328,0.574,0.538,��,4.7,��
2023/07/07,19:30,0.539,0.822,0.499,0.987,0.727,0.328,0.573,0.537,��,4.0,��
2023/07/07,19:40,0.540,0.824,0.499,0.988,0.725,0.328,0.572,0.536,��,4.2,��
2023/07/07,19:50,0.539,0.822,0.498,0.988,0.726,0.328,0.573,0.536,��,5.8,��
2023/07/07,20:00,0.540,0.823,0.499,0.988,0.727,0.327,0.572,0.537,��,5.7,��
2023/07/07,20:10,0.541,0.823,0.498,0.988,0.726,0.328,0.574,0.538,��,5.0,��
2023/07/07,20:20,0.539,0.824,0.498,0.989,0.728,0.327,0.573,0.538,��,5.1,��
2023/07/07,20:30,0.540,0.824,0.498,0.988,0.729,0.329,0.573,0.537,��,3.6,��
2023/07/07,20:40,0.539,0.824,0.498,0.988,0.728,0.328,0.572,0.536,��,3.6,��
2023/07/07,20:50,0.541,0.823,0.499,0.987,0.729,0.329,0.574,0.537,��,3.4,��
2023/07/07,21:00,0.539,0.822,0.499,0.986,0.729,0.328,0.572,0.537,��,4.0,��
2023/07/07,21:10,0.539,0.824,0.497,0.985,0.727,0.329,0.574,0.537,��,5.1,��
2023/07/07,21:20,0.540,0.825,0.499,0.988,0.727,0.330,0.574,0.538,��,6.3,��
2023/07/07,21:30,0.539,0.823,0.498,0.988,0.727,0.328,0.573,0.537,��,6.2,��
2023/07/07,21:40,0.540,0.825,0.499,0.988,0.727,0.328,0.572,0.535,��,5.8,��
2023/07/07,21:50,0.539,0.823,0.498,0.986,0.727,0.328,0.573,0.537,��,5.5,��
2023/07/07,22:00,0.539,0.826,0.498,0.989,0.728,0.329,0.574,0.535,��,5.3,��
2023/07/07,22:10,0.539,0.825,0.497,0.986,0.727,0.328,0.575,0.538,��,5.3,��
2023/07/07,22:20,0.538,0.826,0.497,0.986,0.729,0.329,0.573,0.536,��,5.7,��
2023/07/07,22:30,0.540,0.824,0.498,0.988,0.729,0.329,0.573,0.537,��,6.0,��
2023/07/07,22:40,0.539,0.825,0.498,0.988,0.728,0.329,0.572,0.537,��,6.2,��
2023/07/07,22:50,0.540,0.825,0.500,0.988,0.727,0.328,0.574,0.536,��,6.4,��
2023/07/07,23:00,0.539,0.825,0.499,0.988,0.727,0.330,0.575,0.538,��,6.1,��
2023/07/07,23:10,0.539,0.825,0.498,0.988,0.726,0.329,0.573,0.536,��,7.0,��
2023/07/07,23:20,0.538,0.823,0.499,0.990,0.728,0.328,0.573,0.536,��,6.2,��
2023/07/07,23:30,0.539,0.826,0.500,0.987,0.726,0.329,0.573,0.537,��,5.0,��
2023/07/07,23:40,0.539,0.823,0.499,0.987,0.728,0.329,0.573,0.538,��,4.5,��
2023/07/07,23:50,0.538,0.824,0.501,0.989,0.728,0.331,0.573,0.537,��,3.8,��
